Погода в Городце

Россия / Санкт-Петербург и Ленинградская область     58°32′25″N   29°48′34″E
темп.,
°C
ветер,
м/с
пор.,
м/с
влажн.,
%
обл.,
%
осадки,
мм/ч
давл.,
гПа
погр.,
м
25 июля, вс
вс2500:00+12ссз11685 0.0 101810
03:00+10зсз11715 0.0 101810
06:00+11юз116844 0.0 101810
09:00+19юз224839 0.0 1019375
12:00+23зюз22366 0.0 10191729
15:00+25зюз233692 0.0 10182363
18:00+23ююз1252100 0.0 1019211
21:00+19ююз11618 0.0 101913
26 июля, пн
пн2600:00+15з00745 0.0 102011
03:00+14юв00775 0.0 102110
06:00+14св00785 0.0 102110
09:00+22ююв11535 0.0 1021345
12:00+27ююв11385 0.0 10211546
15:00+28ю11349 0.0 10202291
18:00+27юв21359 0.0 10202254
21:00+21юв22630 0.0 102026
27 июля, вт
вт2700:00+18юв22680 0.0 102031
03:00+16юв22715 0.0 102117
06:00+16вюв12774 0.0 102126
09:00+23вюв23514 0.0 1020348
12:00+28юв33384 0.0 10191357
15:00+30юв233392 0.0 10172862
18:00+28вюв344198 0.0 10161158
21:00+23вюв2762100 0.0 1015137
28 июля, ср
ср2800:00+19юв2764100 0.1 1015119
03:00+17вюв257523 0.1 101382
06:00+17вюв278096 0.0 1012157
09:00+22юв3563100 0.0 1010369
12:00+26юв4752100 0.1 10091525
15:00+20юв4792100 2.1 1008457
18:00+19ююв2596100 1.0 1008315
21:00+18зюз1198100 1.1 100711
29 июля, чт
чт2900:00+17ююз1198100 0.0 100615
03:00+16юз279835 0.0 1006179
06:00+16юз299932 0.0 1005323
09:00+20зюз4883100 0.0 1005686
12:00+25зюз585056 0.0 10041879
15:00+27з6103998 0.2 10042719
18:00+25з712440 0.0 10042125
21:00+20з511590 0.0 10051070